Location: Chandrammap?lem
(16.9200°N, 81.0051°E)
Time: 14:36:29
(UTC+00:00)

CZ-4 R/B - Pass Details

Date: 29 May 2024
Orbit: 516 x 570 km, 97.6° (Epoch: 18 June)

Event Time Altitude Azimuth Distance (km) Brightness Sun altitude
Exits shadow 15:20:25 - 240° (WSW) 1,815 4.2 -28.9°
Reaches altitude 10° 15:20:57 10° 247° (WSW) 1,747 4.2 -29.0°
Maximum altitude 15:21:56 11° 263° (W) 1,696 4.3 -29.2°
Drops below altitude 10° 15:22:55 10° 278° (W) 1,752 4.6 -29.4°
Sets 15:26:37 0° 316° (NW) 2,654 6.0 -30.1°
